PE4KH-1 Weather Reports


time (UTC)temp
F
wind
direction
speed
knots
gust
knots
rain 1hr
in
rain 24hr
in
rain mn
in
humidity
%
barometer
mb
20260502233303 65 0.0 0.0 0.00 0.00 0.00 996.6
20260502232306 65 0.0 0.0 0.00 0.00 0.00 996.8
20260502231304 65 0.0 0.0 0.00 0.00 0.00 996.8
20260502230304 65 0.0 0.0 0.00 0.00 0.00 997.0
20260502225306 65 0.0 0.0 0.00 0.00 0.00 997.0
20260502224304 65 0.0 0.0 0.00 0.00 0.00 997.0
20260502223306 65 0.0 0.0 0.00 0.00 0.00 997.3
20260502222305 65 0.0 0.0 0.00 0.00 0.00 997.7
20260502221303 65 0.0 0.0 0.00 0.00 0.00 998.2
20260502220302 65 0.0 0.0 0.00 0.00 0.00 998.6
20260502215305 66 0.0 0.0 0.00 0.00 0.00 998.8
20260502214302 67 0.0 0.0 0.00 0.00 0.00 999.0
20260502213305 69 0.0 0.0 0.00 0.00 0.00 998.8
20260502212305 69 0.0 0.0 0.00 0.00 0.00 997.5
20260502211302 69 0.0 0.0 0.00 0.00 0.00 997.5
20260502210304 69 0.0 0.0 0.00 0.00 0.00 997.7
20260502205305 69 0.0 0.0 0.00 0.00 0.00 997.5
20260502204301 69 0.0 0.0 0.00 0.00 0.00 997.3
20260502203302 70 0.0 0.0 0.00 0.00 0.00 997.7
20260502202305 70 0.0 0.0 0.00 0.00 0.00 997.7
20260502201305 70 0.0 0.0 0.00 0.00 0.00 997.9
20260502200306 70 0.0 0.0 0.00 0.00 0.00 997.9
20260502195306 71 0.0 0.0 0.00 0.00 0.00 997.9
20260502194303 71 0.0 0.0 0.00 0.00 0.00 997.9
20260502193305 71 0.0 0.0 0.00 0.00 0.00 998.2
20260502192305 71 0.0 0.0 0.00 0.00 0.00 998.2
20260502191302 72 0.0 0.0 0.00 0.00 0.00 998.2
20260502190304 72 0.0 0.0 0.00 0.00 0.00 998.2
20260502185305 72 0.0 0.0 0.00 0.00 0.00 998.2
20260502184303 73 0.0 0.0 0.00 0.00 0.00 998.2
20260502183306 73 0.0 0.0 0.00 0.00 0.00 998.2
20260502182301 74 0.0 0.0 0.00 0.00 0.00 998.2
20260502181305 74 0.0 0.0 0.00 0.00 0.00 997.9
20260502180303 74 0.0 0.0 0.00 0.00 0.00 997.9
20260502170305 77 0.0 0.0 0.00 0.00 0.00 998.6
20260502164306 77 0.0 0.0 0.00 0.00 0.00 998.6
20260502163304 77 0.0 0.0 0.00 0.00 0.00 998.6
20260502162305 77 0.0 0.0 0.00 0.00 0.00 999.0
20260502161304 78 0.0 0.0 0.00 0.00 0.00 999.0
20260502160304 78 0.0 0.0 0.00 0.00 0.00 999.3
20260502152305 78 0.0 0.0 0.00 0.00 0.00 999.5
20260502151306 79 0.0 0.0 0.00 0.00 0.00 999.5
20260502150305 79 0.0 0.0 0.00 0.00 0.00 999.7
20260502130306 77 0.0 0.0 0.00 0.00 0.00 1000.8
20260502123302 77 0.0 0.0 0.00 0.00 0.00 1001.3
20260502122301 77 0.0 0.0 0.00 0.00 0.00 1001.3
20260502121302 77 0.0 0.0 0.00 0.00 0.00 1001.3
20260502120302 77 0.0 0.0 0.00 0.00 0.00 1001.3
20260502115305 77 0.0 0.0 0.00 0.00 0.00 1001.3
20260502114306 77 0.0 0.0 0.00 0.00 0.00 1001.5
20260502113305 77 0.0 0.0 0.00 0.00 0.00 1001.5
20260502112306 76 0.0 0.0 0.00 0.00 0.00 1001.7
20260502111303 76 0.0 0.0 0.00 0.00 0.00 1001.7
20260502110306 76 0.0 0.0 0.00 0.00 0.00 1001.7
20260502105305 76 0.0 0.0 0.00 0.00 0.00 1001.7
20260502104306 76 0.0 0.0 0.00 0.00 0.00 1001.7
20260502103303 76 0.0 0.0 0.00 0.00 0.00 1001.7
20260502102306 76 0.0 0.0 0.00 0.00 0.00 1001.9
20260502101303 76 0.0 0.0 0.00 0.00 0.00 1001.9
20260502100306 75 0.0 0.0 0.00 0.00 0.00 1002.2
20260502091303 74 0.0 0.0 0.00 0.00 0.00 1002.2
20260502090305 72 0.0 0.0 0.00 0.00 0.00 1002.2
20260502071303 64 0.0 0.0 0.00 0.00 0.00 1002.2
20260502070306 64 0.0 0.0 0.00 0.00 0.00 1002.2
20260502065306 63 0.0 0.0 0.00 0.00 0.00 1002.2
20260502064302 63 0.0 0.0 0.00 0.00 0.00 1002.2
20260502063305 63 0.0 0.0 0.00 0.00 0.00 1002.2
20260502062306 62 0.0 0.0 0.00 0.00 0.00 1002.2
20260502061304 62 0.0 0.0 0.00 0.00 0.00 1002.4
20260502060306 62 0.0 0.0 0.00 0.00 0.00 1002.2
20260502055306 61 0.0 0.0 0.00 0.00 0.00 1002.2
20260502054305 61 0.0 0.0 0.00 0.00 0.00 1002.4
20260502053304 61 0.0 0.0 0.00 0.00 0.00 1002.4
20260502052306 61 0.0 0.0 0.00 0.00 0.00 1002.2
20260502051302 60 0.0 0.0 0.00 0.00 0.00 1001.7
20260502050302 60 0.0 0.0 0.00 0.00 0.00 1001.9
20260502045306 60 0.0 0.0 0.00 0.00 0.00 1001.9
20260502044301 60 0.0 0.0 0.00 0.00 0.00 1002.2
20260502043302 60 0.0 0.0 0.00 0.00 0.00 1001.9
20260502042306 60 0.0 0.0 0.00 0.00 0.00 1002.2
20260502041306 60 0.0 0.0 0.00 0.00 0.00 1001.9
20260502040305 60 0.0 0.0 0.00 0.00 0.00 1002.2
20260502035306 61 0.0 0.0 0.00 0.00 0.00 1001.9
20260502034303 61 0.0 0.0 0.00 0.00 0.00 1002.2
20260502033306 61 0.0 0.0 0.00 0.00 0.00 1002.2
20260502032305 61 0.0 0.0 0.00 0.00 0.00 1002.2
20260502031306 61 0.0 0.0 0.00 0.00 0.00 1002.2
20260502030306 61 0.0 0.0 0.00 0.00 0.00 1002.4
20260502025306 62 0.0 0.0 0.00 0.00 0.00 1002.6
20260502024301 62 0.0 0.0 0.00 0.00 0.00 1002.6
20260502023305 62 0.0 0.0 0.00 0.00 0.00 1002.6
20260502022306 62 0.0 0.0 0.00 0.00 0.00 1002.8
20260502021304 62 0.0 0.0 0.00 0.00 0.00 1002.8
20260502020304 62 0.0 0.0 0.00 0.00 0.00 1002.8
20260502015305 62 0.0 0.0 0.00 0.00 0.00 1002.8
20260502014303 62 0.0 0.0 0.00 0.00 0.00 1002.8
20260502013302 62 0.0 0.0 0.00 0.00 0.00 1002.8
20260502012306 62 0.0 0.0 0.00 0.00 0.00 1003.0
20260502011306 63 0.0 0.0 0.00 0.00 0.00 1003.0
20260502010306 63 0.0 0.0 0.00 0.00 0.00 1003.3
20260502005306 63 0.0 0.0 0.00 0.00 0.00 1003.3
20260502004304 63 0.0 0.0 0.00 0.00 0.00 1003.5
20260502003306 64 0.0 0.0 0.00 0.00 0.00 1003.5
20260502002306 64 0.0 0.0 0.00 0.00 0.00 1003.5
20260502001303 64 0.0 0.0 0.00 0.00 0.00 1003.5
20260502000305 64 0.0 0.0 0.00 0.00 0.00 1003.7
20260501235306 65 0.0 0.0 0.00 0.00 0.00 1003.7
20260501234306 65 0.0 0.0 0.00 0.00 0.00 1003.9